Retour au catalogue

STARLINK-6308

ActifCommunicationsVLEO
NORAD 56534·PAYLOAD·🇺🇸 United States

Lancé May 14, 2023 depuis Cape Canaveral Space Force Station

Loading…

Prochains Passages (prochaines 24 heures)

TLE

FraisSource: CelesTrak SupGP

Époque: Sep 14, 2026, 14:46 UTC

1 56534C 23065AH  26257.61576389 -.00028119  00000+0 -10187-2 0  2574
2 56534  43.0031 211.3337 0001253 275.5003 218.0286 15.27585044    18

Suivez STARLINK-6308 en temps réel avec AllMySat

Download on the App Store